カタログに戻る

FENGYUN 1C DEB

運用中SSO
NORAD 32101·DEBRIS·🇨🇳 China

打ち上げ May 10, 1999 から Taiyuan Satellite Launch Center

Loading…

次のパス (今後24時間)

TLE

最新Source: Space-Track

元期: Sep 14, 2026, 13:11 UTC

1 32101U 99025CQT 26257.54990961  .00001159  00000-0  73018-3 0  9995
2 32101  99.0210 159.1919 0116084 192.6569 167.1676 14.02993360970482

AllMySatでFENGYUN 1C DEBをリアルタイム追跡

Download on the App Store